JBU100 KLAX-KFLL

Flight info

Callsign JBU100
Flight time N/A
Altitude 33000
Route DOTSS2 CLEEE PKE DRK OATES AVANS ABQ PNH BFV IRW DWINE MATIE SQS ACORI TEEKY4
Aircraft A321/M-SDE3FGHIRWY/LB1

Departure

Time 2026-04-21 21:50
Airport Los Angeles International Airport (KLAX)

Arrival

Time N/A
Airport Fort Lauderdale Hollywood International Airport (KFLL)
Time Latitude Longitude Altitude Speed Heading
2026-04-21 21:02 33.94685 -118.40186 93 ft 0 kts 83°
2026-04-21 21:30 33.94684 -118.40196 94 ft 4 kts 83°
2026-04-21 21:30 33.94681 -118.40224 93 ft 2 kts 84°
2026-04-21 21:30 33.94677 -118.40246 92 ft 4 kts 19°
2026-04-21 21:31 33.94654 -118.40246 91 ft 4 kts 353°
2026-04-21 21:31 33.94645 -118.40245 92 ft 0 kts 353°
2026-04-21 21:34 33.94651 -118.40246 91 ft 1 kts 353°
2026-04-21 21:35 33.94664 -118.40248 92 ft 2 kts 353°
2026-04-21 21:35 33.94685 -118.40251 92 ft 4 kts 353°
2026-04-21 21:35 33.94713 -118.40255 94 ft 5 kts 353°
2026-04-21 21:35 33.94745 -118.40260 95 ft 1 kts 353°
2026-04-21 21:36 33.94746 -118.40260 95 ft 0 kts 352°
2026-04-21 21:44 33.94748 -118.40260 95 ft 1 kts 352°
2026-04-21 21:44 33.94757 -118.40262 94 ft 2 kts 352°
2026-04-21 21:45 33.94774 -118.40264 95 ft 3 kts 352°
2026-04-21 21:45 33.94801 -118.40270 94 ft 7 kts 344°
2026-04-21 21:45 33.94862 -118.40290 95 ft 9 kts
2026-04-21 21:45 33.94900 -118.40235 95 ft 11 kts 78°
2026-04-21 21:46 33.94911 -118.40132 94 ft 13 kts 83°
2026-04-21 21:46 33.94922 -118.40020 93 ft 14 kts 83°
2026-04-21 21:46 33.94941 -118.39936 94 ft 9 kts 52°
2026-04-21 21:46 33.95000 -118.39910 94 ft 10 kts 354°
2026-04-21 21:47 33.95044 -118.39953 96 ft 8 kts 265°
2026-04-21 21:47 33.95042 -118.39969 94 ft 0 kts 261°
2026-04-21 21:49 33.95041 -118.39972 94 ft 2 kts 261°
2026-04-21 21:49 33.95018 -118.40162 101 ft 56 kts 263°
2026-04-21 21:50 33.94945 -118.40896 99 ft 119 kts 263°
2026-04-21 21:50 33.94823 -118.42096 103 ft 167 kts 264°
2026-04-21 21:50 33.94687 -118.43447 859 ft 152 kts 255°
2026-04-21 21:50 33.94541 -118.44691 1552 ft 154 kts 259°
2026-04-21 21:51 33.94405 -118.46041 1808 ft 172 kts 259°
2026-04-21 21:51 33.94289 -118.47578 1947 ft 195 kts 262°
2026-04-21 21:51 33.94225 -118.49296 2100 ft 216 kts 264°
2026-04-21 21:51 33.94165 -118.51205 2200 ft 240 kts 264°
2026-04-21 21:52 33.94039 -118.53262 2716 ft 250 kts 262°
2026-04-21 21:52 33.93882 -118.55360 3693 ft 252 kts 262°
2026-04-21 21:52 33.93718 -118.57462 4692 ft 252 kts 263°
2026-04-21 21:52 33.93551 -118.59569 5527 ft 253 kts 262°
2026-04-21 21:53 33.93204 -118.61632 6249 ft 252 kts 243°
2026-04-21 21:53 33.92146 -118.63264 6861 ft 254 kts 217°
2026-04-21 21:53 33.90504 -118.64114 7500 ft 260 kts 191°
2026-04-21 21:53 33.88670 -118.64103 8136 ft 266 kts 181°
2026-04-21 21:54 33.86818 -118.63966 8819 ft 268 kts 181°
2026-04-21 21:54 33.84948 -118.63743 9470 ft 274 kts 172°
2026-04-21 21:54 33.83135 -118.62951 10101 ft 284 kts 156°
2026-04-21 21:54 33.81425 -118.61621 10370 ft 303 kts 152°
2026-04-21 21:55 33.79616 -118.60158 10514 ft 324 kts 152°
2026-04-21 21:55 33.77692 -118.58598 10632 ft 344 kts 151°
2026-04-21 21:55 33.75670 -118.56954 10901 ft 356 kts 151°
2026-04-21 21:55 33.73602 -118.55266 11369 ft 362 kts 152°
2026-04-21 21:56 33.71567 -118.53417 11823 ft 375 kts 142°
2026-04-21 21:56 33.69829 -118.51005 12284 ft 389 kts 129°
2026-04-21 21:56 33.68539 -118.48099 12778 ft 402 kts 115°
2026-04-21 21:56 33.67594 -118.44909 13294 ft 408 kts 113°
2026-04-21 21:57 33.66656 -118.41723 13775 ft 413 kts 114°
2026-04-21 21:57 33.65684 -118.38449 14227 ft 419 kts 114°
2026-04-21 21:57 33.64822 -118.35032 14764 ft 426 kts 105°
2026-04-21 21:57 33.64460 -118.31534 15318 ft 433 kts 94°
2026-04-21 21:58 33.64460 -118.27906 15833 ft 437 kts 92°